TimeEST,TemperatureF,Dew PointF,Humidity,Sea Level PressureIn,VisibilityMPH,Wind Direction,Wind SpeedMPH,Gust SpeedMPH,PrecipitationIn,Events,Conditions,WindDirDegrees,DateUTC
12:56 AM,44.1,41.0,89,29.98,10.0,Calm,Calm,-,N/A,,Clear,0,2013-02-16 05:56:00
1:56 AM,43.0,39.9,89,29.97,10.0,Calm,Calm,-,N/A,,Clear,0,2013-02-16 06:56:00
2:56 AM,42.1,39.0,89,29.95,10.0,Calm,Calm,-,N/A,,Clear,0,2013-02-16 07:56:00
3:56 AM,44.1,41.0,89,29.92,10.0,Calm,Calm,-,N/A,,Clear,0,2013-02-16 08:56:00
4:56 AM,43.0,39.9,89,29.91,10.0,NW,6.9,-,N/A,,Clear,310,2013-02-16 09:56:00
5:56 AM,43.0,39.9,89,29.91,10.0,WSW,3.5,-,N/A,,Clear,240,2013-02-16 10:56:00
6:56 AM,43.0,39.9,89,29.90,10.0,Calm,Calm,-,N/A,,Clear,0,2013-02-16 11:56:00
7:56 AM,45.0,41.0,86,29.89,10.0,Calm,Calm,-,N/A,,Clear,0,2013-02-16 12:56:00
8:56 AM,46.9,39.9,77,29.90,10.0,North,9.2,-,N/A,,Clear,350,2013-02-16 13:56:00
9:56 AM,50.0,41.0,71,29.90,10.0,North,6.9,-,N/A,,Clear,350,2013-02-16 14:56:00
10:56 AM,52.0,39.0,61,29.90,10.0,North,13.8,-,N/A,,Clear,350,2013-02-16 15:56:00
11:56 AM,53.1,36.0,52,29.91,10.0,NNW,20.7,28.8,N/A,,Overcast,330,2013-02-16 16:56:00
12:53 PM,46.4,35.6,66,29.92,10.0,NW,20.7,29.9,N/A,,Overcast,320,2013-02-16 17:53:00
12:56 PM,46.0,35.1,66,29.93,10.0,NNW,19.6,29.9,N/A,,Overcast,330,2013-02-16 17:56:00
1:21 PM,44.6,35.6,71,29.93,10.0,NW,24.2,31.1,N/A,,Overcast,320,2013-02-16 18:21:00
1:56 PM,42.1,35.1,76,29.93,10.0,NNW,21.9,29.9,0.00,Rain,Light Rain,330,2013-02-16 18:56:00
2:56 PM,42.1,37.0,82,29.90,10.0,North,6.9,-,0.01,,Overcast,350,2013-02-16 19:56:00
3:24 PM,42.8,37.4,81,29.91,10.0,WNW,9.2,-,N/A,,Overcast,290,2013-02-16 20:24:00
3:45 PM,44.6,37.4,76,29.90,10.0,WNW,8.1,-,N/A,,Mostly Cloudy,300,2013-02-16 20:45:00
3:56 PM,43.0,36.0,76,29.90,10.0,WNW,9.2,-,N/A,,Mostly Cloudy,300,2013-02-16 20:56:00
4:07 PM,44.6,35.6,71,29.89,10.0,NW,11.5,-,N/A,,Scattered Clouds,320,2013-02-16 21:07:00
4:56 PM,44.1,35.1,71,29.90,10.0,WNW,5.8,-,N/A,,Partly Cloudy,300,2013-02-16 21:56:00
5:56 PM,44.1,35.1,71,29.90,10.0,West,3.5,-,N/A,,Mostly Cloudy,280,2013-02-16 22:56:00
6:56 PM,46.0,30.0,54,29.93,10.0,West,15.0,21.9,N/A,,Overcast,280,2013-02-16 23:56:00
7:56 PM,44.1,18.0,35,29.96,10.0,NW,11.5,26.5,N/A,,Clear,310,2013-02-17 00:56:00
8:56 PM,42.1,15.1,34,30.00,10.0,NW,13.8,21.9,N/A,,Clear,310,2013-02-17 01:56:00
9:56 PM,41.0,12.9,32,30.04,10.0,NW,11.5,25.3,N/A,,Clear,310,2013-02-17 02:56:00
10:56 PM,39.0,15.1,38,30.07,10.0,NW,10.4,-,N/A,,Clear,310,2013-02-17 03:56:00
11:56 PM,37.9,12.9,36,30.09,10.0,NW,10.4,19.6,N/A,,Clear,320,2013-02-17 04:56:00